Wetterdaten: aktuell Donnerstag, 02.07.2020 08:04
Datum Zeit Temp.Rudling Temp. 2m Temp. 5cm Temp. Gh Feuchte 2m Luftdruck Regen Wind Richtung Richtung Taupunkt Windchill Windben
02.07.2020 08:04 19,7 C 19,1 C 20,5 C 24,8 C 80 % 1017,7 hPa 0,0 l/m 2,6 km/h (1 Bft) NW 315 15,6 C 19,1 C 5,3 km/h (1 Bft)
02.07.2020 08:02 19,6 C 19,1 C 20,9 C 25,0 C 80 % 1017,7 hPa 0,0 l/m 2,4 km/h (1 Bft) NW 315 15,6 C 19,1 C 3,9 km/h (1 Bft)
02.07.2020 08:00 19,6 C 19,1 C 21,1 C 25,2 C 79 % 1017,7 hPa 0,0 l/m 2,6 km/h (1 Bft) W 270 15,4 C 19,1 C 5,8 km/h (2 Bft)
02.07.2020 07:58 19,6 C 19,1 C 21,1 C 25,3 C 80 % 1017,7 hPa 0,0 l/m 2,4 km/h (1 Bft) W-SW 247 15,6 C 19,1 C 5,8 km/h (2 Bft)
02.07.2020 07:56 19,6 C 19,0 C 20,8 C 25,5 C 79 % 1017,1 hPa 0,0 l/m 2,6 km/h (1 Bft) W-NW 292 15,3 C 19,0 C 4,8 km/h (1 Bft)
02.07.2020 07:54 19,6 C 19,0 C 20,8 C 25,7 C 79 % 1017,1 hPa 0,0 l/m 2,4 km/h (1 Bft) W 270 15,3 C 19,0 C 3,9 km/h (1 Bft)
02.07.2020 07:52 19,6 C 19,0 C 20,9 C 26,0 C 79 % 1017,1 hPa 0,0 l/m 2,3 km/h (1 Bft) N-NW 337 15,3 C 19,0 C 5,6 km/h (1 Bft)
02.07.2020 07:50 19,6 C 19,0 C 20,7 C 26,1 C 79 % 1017,1 hPa 0,0 l/m 2,3 km/h (1 Bft) W 270 15,3 C 19,0 C 5,6 km/h (1 Bft)
02.07.2020 07:48 19,6 C 19,0 C 21,1 C 26,2 C 79 % 1017,1 hPa 0,0 l/m 2,1 km/h (1 Bft) W-SW 247 15,3 C 19,0 C 4,8 km/h (1 Bft)
02.07.2020 07:46 19,5 C 19,0 C 21,8 C 26,1 C 79 % 1017,1 hPa 0,0 l/m 2,1 km/h (1 Bft) W 270 15,3 C 19,0 C 5,1 km/h (1 Bft)
02.07.2020 07:44 19,4 C 18,9 C 21,6 C 26,0 C 80 % 1017,1 hPa 0,0 l/m 1,8 km/h (1 Bft) W 270 15,4 C 18,9 C 5,1 km/h (1 Bft)
02.07.2020 07:42 19,3 C 18,8 C 21,1 C 25,8 C 81 % 1017,1 hPa 0,0 l/m 1,4 km/h (1 Bft) NW 315 15,5 C 18,8 C 3,6 km/h (1 Bft)
02.07.2020 07:40 19,3 C 18,7 C 21,0 C 25,8 C 82 % 1017,1 hPa 0,0 l/m 1,4 km/h (1 Bft) NW 315 15,6 C 18,7 C 4,8 km/h (1 Bft)
02.07.2020 07:38 19,2 C 18,6 C 20,3 C 25,9 C 81 % 1017,1 hPa 0,0 l/m 1,3 km/h (1 Bft) W-NW 292 15,3 C 18,6 C 4,8 km/h (1 Bft)
02.07.2020 07:36 19,2 C 18,6 C 20,1 C 26,0 C 81 % 1016,9 hPa 0,0 l/m 1,6 km/h (1 Bft) W 270 15,3 C 18,6 C 4,3 km/h (1 Bft)
02.07.2020 07:34 19,1 C 18,5 C 20,3 C 26,1 C 81 % 1016,9 hPa 0,0 l/m 1,8 km/h (1 Bft) NW 315 15,2 C 18,5 C 3,1 km/h (1 Bft)
02.07.2020 07:32 19,1 C 18,6 C 20,3 C 26,2 C 81 % 1016,9 hPa 0,0 l/m 2,3 km/h (1 Bft) NW 315 15,3 C 18,6 C 6,8 km/h (2 Bft)
02.07.2020 07:30 19,0 C 18,5 C 20,2 C 26,4 C 81 % 1016,9 hPa 0,0 l/m 2,7 km/h (1 Bft) NW 315 15,2 C 18,5 C 6,8 km/h (2 Bft)
02.07.2020 07:28 19,0 C 18,5 C 20,3 C 26,4 C 80 % 1016,9 hPa 0,0 l/m 2,9 km/h (1 Bft) W 270 15,0 C 18,5 C 3,1 km/h (1 Bft)
02.07.2020 07:26 19,0 C 18,5 C 20,2 C 26,5 C 80 % 1016,9 hPa 0,0 l/m 2,9 km/h (1 Bft) W-SW 247 15,0 C 18,5 C 6,3 km/h (2 Bft)
02.07.2020 07:24 19,0 C 18,5 C 19,8 C 26,6 C 79 % 1016,9 hPa 0,0 l/m 3,1 km/h (1 Bft) W-SW 247 14,8 C 18,5 C 6,3 km/h (2 Bft)
02.07.2020 07:22 19,0 C 18,5 C 19,6 C 26,6 C 79 % 1016,9 hPa 0,0 l/m 3,1 km/h (1 Bft) W-SW 247 14,8 C 18,5 C 6,8 km/h (2 Bft)
02.07.2020 07:20 19,0 C 18,7 C 19,6 C 26,5 C 79 % 1016,9 hPa 0,0 l/m 3,2 km/h (1 Bft) W 270 15,0 C 18,7 C 6,8 km/h (2 Bft)
02.07.2020 07:18 18,9 C 18,7 C 19,1 C 26,4 C 79 % 1016,9 hPa 0,0 l/m 3,2 km/h (1 Bft) W 270 15,0 C 18,7 C 5,3 km/h (1 Bft)
02.07.2020 07:16 18,9 C 18,8 C 19,1 C 26,3 C 79 % 1016,8 hPa 0,0 l/m 3,4 km/h (1 Bft) W 270 15,1 C 18,8 C 5,6 km/h (1 Bft)
02.07.2020 07:14 18,8 C 18,7 C 19,4 C 26,2 C 80 % 1016,8 hPa 0,0 l/m 3,4 km/h (1 Bft) W-SW 247 15,2 C 18,7 C 5,6 km/h (1 Bft)
02.07.2020 07:12 18,8 C 18,6 C 19,6 C 25,9 C 80 % 1016,8 hPa 0,0 l/m 3,4 km/h (1 Bft) W-NW 292 15,1 C 18,6 C 6,0 km/h (2 Bft)
02.07.2020 07:10 18,8 C 18,5 C 19,3 C 25,6 C 80 % 1016,8 hPa 0,0 l/m 3,4 km/h (1 Bft) W 270 15,0 C 18,5 C 6,8 km/h (2 Bft)
02.07.2020 07:08 18,7 C 18,4 C 19,0 C 25,4 C 80 % 1016,8 hPa 0,0 l/m 3,4 km/h (1 Bft) SW 225 14,9 C 18,4 C 6,8 km/h (2 Bft)
02.07.2020 07:06 18,6 C 18,4 C 19,3 C 25,1 C 80 % 1016,8 hPa 0,0 l/m 3,4 km/h (1 Bft) NW 315 14,9 C 18,4 C 8,0 km/h (2 Bft)
02.07.2020 07:04 18,6 C 18,4 C 19,5 C 24,9 C 80 % 1016,8 hPa 0,0 l/m 3,5 km/h (1 Bft) S 180 14,9 C 18,4 C 8,0 km/h (2 Bft)
02.07.2020 07:02 18,6 C 18,2 C 19,7 C 24,6 C 80 % 1016,8 hPa 0,0 l/m 3,5 km/h (1 Bft) W 270 14,7 C 18,2 C 7,2 km/h (2 Bft)
02.07.2020 07:00 18,5 C 18,1 C 19,2 C 24,3 C 80 % 1016,8 hPa 0,0 l/m 3,5 km/h (1 Bft) W 270 14,6 C 18,1 C 7,2 km/h (2 Bft)
02.07.2020 06:58 18,4 C 17,8 C 18,9 C 24,0 C 80 % 1016,8 hPa 0,0 l/m 3,4 km/h (1 Bft) W 270 14,3 C 17,8 C 7,2 km/h (2 Bft)
02.07.2020 06:56 18,4 C 17,8 C 18,9 C 23,8 C 80 % 1016,5 hPa 0,0 l/m 3,5 km/h (1 Bft) SW 225 14,3 C 17,8 C 8,2 km/h (2 Bft)
02.07.2020 06:54 18,3 C 17,8 C 19,0 C 23,5 C 80 % 1016,5 hPa 0,0 l/m 3,4 km/h (1 Bft) W 270 14,3 C 17,8 C 8,2 km/h (2 Bft)
02.07.2020 06:52 18,3 C 17,7 C 18,8 C 23,4 C 80 % 1016,5 hPa 0,0 l/m 3,2 km/h (1 Bft) W 270 14,2 C 17,7 C 5,6 km/h (1 Bft)
02.07.2020 06:50 18,3 C 17,7 C 18,5 C 23,3 C 80 % 1016,5 hPa 0,0 l/m 3,4 km/h (1 Bft) NW 315 14,2 C 17,7 C 5,6 km/h (1 Bft)
02.07.2020 06:48 18,3 C 17,7 C 18,3 C 23,3 C 81 % 1016,5 hPa 0,0 l/m 3,4 km/h (1 Bft) NW 315 14,4 C 17,7 C 8,9 km/h (2 Bft)
02.07.2020 06:46 18,3 C 17,6 C 18,5 C 23,1 C 81 % 1016,5 hPa 0,0 l/m 3,5 km/h (1 Bft) W 270 14,3 C 17,6 C 8,9 km/h (2 Bft)
02.07.2020 06:44 18,3 C 17,6 C 18,7 C 23,0 C 81 % 1016,5 hPa 0,0 l/m 3,7 km/h (1 Bft) W 270 14,3 C 17,6 C 6,0 km/h (2 Bft)
02.07.2020 06:42 18,3 C 17,6 C 18,7 C 23,0 C 81 % 1016,5 hPa 0,0 l/m 3,9 km/h (1 Bft) W-NW 292 14,3 C 17,6 C 6,0 km/h (2 Bft)
02.07.2020 06:40 18,3 C 17,6 C 18,5 C 23,0 C 81 % 1016,5 hPa 0,0 l/m 3,9 km/h (1 Bft) SO 135 14,3 C 17,6 C 6,5 km/h (2 Bft)
02.07.2020 06:38 18,4 C 17,6 C 18,4 C 23,0 C 81 % 1016,5 hPa 0,0 l/m 3,9 km/h (1 Bft) W 270 14,3 C 17,6 C 6,5 km/h (2 Bft)
02.07.2020 06:36 18,5 C 17,6 C 18,7 C 23,0 C 81 % 1016,4 hPa 0,0 l/m 3,7 km/h (1 Bft) W 270 14,3 C 17,6 C 9,2 km/h (2 Bft)
02.07.2020 06:34 18,5 C 17,6 C 18,6 C 23,0 C 81 % 1016,4 hPa 0,0 l/m 3,5 km/h (1 Bft) NW 315 14,3 C 17,6 C 9,2 km/h (2 Bft)
02.07.2020 06:32 18,6 C 17,6 C 18,7 C 23,0 C 81 % 1016,4 hPa 0,0 l/m 3,5 km/h (1 Bft) W 270 14,3 C 17,6 C 8,2 km/h (2 Bft)
02.07.2020 06:30 18,6 C 17,4 C 18,8 C 22,9 C 81 % 1016,4 hPa 0,0 l/m 3,4 km/h (1 Bft) W 270 14,1 C 17,4 C 8,2 km/h (2 Bft)
02.07.2020 06:28 18,7 C 17,3 C 18,7 C 22,6 C 81 % 1016,4 hPa 0,0 l/m 3,5 km/h (1 Bft) W 270 14,0 C 17,3 C 5,3 km/h (1 Bft)
02.07.2020 06:26 18,8 C 17,2 C 18,5 C 22,1 C 81 % 1016,4 hPa 0,0 l/m 3,7 km/h (1 Bft) W-SW 247 13,9 C 17,2 C 5,3 km/h (1 Bft)
02.07.2020 06:24 18,9 C 17,1 C 18,0 C 21,9 C 81 % 1016,4 hPa 0,0 l/m 3,7 km/h (1 Bft) N-NW 337 13,8 C 17,1 C 7,7 km/h (2 Bft)
02.07.2020 06:22 19,1 C 17,1 C 17,9 C 21,2 C 81 % 1016,4 hPa 0,0 l/m 3,9 km/h (1 Bft) W 270 13,8 C 17,1 C 7,7 km/h (2 Bft)
02.07.2020 06:20 19,1 C 16,9 C 17,8 C 21,0 C 81 % 1016,4 hPa 0,0 l/m 3,9 km/h (1 Bft) W-NW 292 13,6 C 16,9 C 6,8 km/h (2 Bft)
02.07.2020 06:18 18,7 C 16,9 C 18,0 C 20,7 C 81 % 1016,4 hPa 0,0 l/m 3,9 km/h (1 Bft) O-NO 67 13,6 C 16,9 C 7,0 km/h (2 Bft)
02.07.2020 06:16 18,3 C 16,9 C 18,2 C 20,5 C 81 % 1016,1 hPa 0,0 l/m 3,7 km/h (1 Bft) NW 315 13,6 C 16,9 C 7,0 km/h (2 Bft)
02.07.2020 06:14 17,8 C 16,9 C 18,3 C 20,0 C 81 % 1016,1 hPa 0,0 l/m 3,2 km/h (1 Bft) NW 315 13,6 C 16,9 C 5,3 km/h (1 Bft)
02.07.2020 06:12 17,1 C 16,8 C 18,4 C 19,7 C 81 % 1016,1 hPa 0,0 l/m 3,1 km/h (1 Bft) NW 315 13,5 C 16,8 C 8,2 km/h (2 Bft)
02.07.2020 06:10 16,0 C 16,8 C 18,2 C 19,4 C 81 % 1016,1 hPa 0,0 l/m 2,4 km/h (1 Bft) W 270 13,5 C 16,8 C 8,2 km/h (2 Bft)
02.07.2020 06:08 15,7 C 16,7 C 18,0 C 19,1 C 81 % 1016,1 hPa 0,0 l/m 1,8 km/h (1 Bft) W 270 13,4 C 16,7 C 6,8 km/h (2 Bft)
02.07.2020 06:06 15,6 C 16,6 C 18,1 C 18,8 C 82 % 1016,1 hPa 0,0 l/m 1,6 km/h (1 Bft) W-SW 247 13,5 C 16,6 C 6,8 km/h (2 Bft)
02.07.2020 06:04 15,5 C 16,6 C 17,7 C 18,3 C 82 % 1016,1 hPa 0,0 l/m 1,3 km/h (1 Bft) W 270 13,5 C 16,6 C 4,3 km/h (1 Bft)
02.07.2020 06:02 15,5 C 16,5 C 17,8 C 18,2 C 82 % 1016,1 hPa 0,0 l/m 0,8 km/h (0 Bft) W 270 13,4 C 16,5 C 3,1 km/h (1 Bft)
02.07.2020 06:00 15,4 C 16,4 C 17,5 C 17,9 C 81 % 1016,1 hPa 0,0 l/m 0,6 km/h (0 Bft) W 270 13,1 C 16,4 C 3,1 km/h (1 Bft)
02.07.2020 05:58 15,4 C 16,4 C 17,3 C 17,7 C 81 % 1016,1 hPa 0,0 l/m 0,6 km/h (0 Bft) W 270 13,1 C 16,4 C 3,6 km/h (1 Bft)
02.07.2020 05:56 15,3 C 16,3 C 17,0 C 17,6 C 81 % 1015,7 hPa 0,0 l/m 0,5 km/h (0 Bft) W-SW 247 13,0 C 16,3 C 3,6 km/h (1 Bft)
02.07.2020 05:54 15,3 C 16,3 C 17,0 C 17,5 C 81 % 1015,7 hPa 0,0 l/m 0,2 km/h (0 Bft) W 270 13,0 C 16,3 C 0,0 km/h (0 Bft)
02.07.2020 05:52 15,3 C 16,2 C 17,0 C 17,5 C 81 % 1015,7 hPa 0,0 l/m 0,2 km/h (0 Bft) NW 315 12,9 C 16,2 C 0,0 km/h (0 Bft)
02.07.2020 05:50 15,2 C 16,1 C 16,8 C 17,4 C 81 % 1015,7 hPa 0,0 l/m 0,8 km/h (0 Bft) N-NW 337 12,8 C 16,1 C 0,0 km/h (0 Bft)
02.07.2020 05:48 15,2 C 16,1 C 16,8 C 17,3 C 81 % 1015,7 hPa 0,0 l/m 1,1 km/h (1 Bft) N-NW 337 12,8 C 16,1 C 0,0 km/h (0 Bft)
02.07.2020 05:46 15,2 C 16,0 C 16,5 C 17,3 C 81 % 1015,7 hPa 0,0 l/m 1,3 km/h (1 Bft) W-SW 247 12,7 C 16,0 C 0,0 km/h (0 Bft)
02.07.2020 05:44 15,2 C 16,0 C 16,4 C 17,3 C 81 % 1015,7 hPa 0,0 l/m 1,8 km/h (1 Bft) SW 225 12,7 C 16,0 C 2,9 km/h (1 Bft)
02.07.2020 05:42 15,2 C 16,0 C 16,3 C 17,3 C 81 % 1015,7 hPa 0,0 l/m 1,8 km/h (1 Bft) S-SW 202 12,7 C 16,0 C 5,6 km/h (1 Bft)
02.07.2020 05:40 15,2 C 15,8 C 16,3 C 17,2 C 82 % 1015,7 hPa 0,0 l/m 1,6 km/h (1 Bft) W-SW 247 12,7 C 15,8 C 5,6 km/h (1 Bft)
02.07.2020 05:38 15,2 C 15,8 C 16,3 C 17,2 C 82 % 1015,7 hPa 0,0 l/m 1,1 km/h (1 Bft) SW 225 12,7 C 15,8 C 3,1 km/h (1 Bft)
02.07.2020 05:36 15,2 C 15,8 C 16,4 C 17,2 C 82 % 1015,4 hPa 0,0 l/m 1,1 km/h (1 Bft) W-SW 247 12,7 C 15,8 C 4,3 km/h (1 Bft)
02.07.2020 05:34 15,2 C 15,8 C 16,6 C 17,2 C 82 % 1015,4 hPa 0,0 l/m 1,3 km/h (1 Bft) SW 225 12,7 C 15,8 C 4,3 km/h (1 Bft)
02.07.2020 05:32 15,2 C 15,8 C 16,6 C 17,2 C 82 % 1015,4 hPa 0,0 l/m 1,6 km/h (1 Bft) SW 225 12,7 C 15,8 C 0,0 km/h (0 Bft)
02.07.2020 05:30 15,2 C 15,8 C 16,8 C 17,2 C 82 % 1015,4 hPa 0,0 l/m 2,3 km/h (1 Bft) NW 315 12,7 C 15,8 C 0,0 km/h (0 Bft)
02.07.2020 05:28 15,2 C 15,8 C 17,0 C 17,1 C 82 % 1015,4 hPa 0,0 l/m 2,7 km/h (1 Bft) NW 315 12,7 C 15,8 C 4,8 km/h (1 Bft)
02.07.2020 05:26 15,2 C 15,8 C 17,3 C 17,1 C 82 % 1015,4 hPa 0,0 l/m 3,2 km/h (1 Bft) W 270 12,7 C 15,8 C 4,8 km/h (1 Bft)
02.07.2020 05:24 15,2 C 15,8 C 17,1 C 17,1 C 82 % 1015,4 hPa 0,0 l/m 3,4 km/h (1 Bft) W-SW 247 12,7 C 15,8 C 6,0 km/h (2 Bft)
02.07.2020 05:22 15,2 C 15,8 C 17,1 C 17,1 C 82 % 1015,4 hPa 0,0 l/m 3,2 km/h (1 Bft) W-SW 247 12,7 C 15,8 C 6,0 km/h (2 Bft)
02.07.2020 05:20 15,3 C 15,8 C 16,9 C 17,1 C 82 % 1015,4 hPa 0,0 l/m 2,9 km/h (1 Bft) W-SW 247 12,7 C 15,8 C 8,2 km/h (2 Bft)
02.07.2020 05:18 15,3 C 15,8 C 16,6 C 17,1 C 82 % 1015,4 hPa 0,0 l/m 2,7 km/h (1 Bft) W-SW 247 12,7 C 15,8 C 8,2 km/h (2 Bft)
02.07.2020 05:16 15,3 C 15,8 C 16,5 C 17,1 C 82 % 1015,3 hPa 0,0 l/m 2,6 km/h (1 Bft) W-SW 247 12,7 C 15,8 C 6,0 km/h (2 Bft)
02.07.2020 05:14 15,3 C 15,8 C 16,4 C 17,1 C 82 % 1015,3 hPa 0,0 l/m 2,4 km/h (1 Bft) W 270 12,7 C 15,8 C 5,8 km/h (2 Bft)
02.07.2020 05:12 15,3 C 15,8 C 16,3 C 17,0 C 82 % 1015,3 hPa 0,0 l/m 2,4 km/h (1 Bft) W-SW 247 12,7 C 15,8 C 4,1 km/h (1 Bft)
02.07.2020 05:10 15,4 C 15,8 C 16,3 C 17,1 C 82 % 1015,3 hPa 0,0 l/m 2,9 km/h (1 Bft) W 270 12,7 C 15,8 C 3,6 km/h (1 Bft)
02.07.2020 05:08 15,4 C 15,8 C 16,2 C 17,1 C 82 % 1015,3 hPa 0,0 l/m 3,2 km/h (1 Bft) W 270 12,7 C 15,8 C 3,9 km/h (1 Bft)
02.07.2020 05:06 15,4 C 15,8 C 16,3 C 17,1 C 82 % 1015,3 hPa 0,0 l/m 3,4 km/h (1 Bft) W 270 12,7 C 15,8 C 4,3 km/h (1 Bft)
02.07.2020 05:04 15,5 C 15,8 C 16,5 C 17,1 C 82 % 1015,3 hPa 0,0 l/m 3,5 km/h (1 Bft) W 270 12,7 C 15,8 C 4,8 km/h (1 Bft)
02.07.2020 05:02 15,5 C 15,8 C 16,5 C 17,1 C 82 % 1015,3 hPa 0,0 l/m 3,9 km/h (1 Bft) W 270 12,7 C 15,8 C 6,5 km/h (2 Bft)
02.07.2020 05:00 15,5 C 15,8 C 16,4 C 17,1 C 82 % 1015,3 hPa 0,0 l/m 4,0 km/h (1 Bft) W 270 12,7 C 15,8 C 6,5 km/h (2 Bft)
02.07.2020 04:58 15,5 C 15,8 C 16,0 C 17,1 C 82 % 1015,3 hPa 0,0 l/m 4,2 km/h (1 Bft) W 270 12,7 C 15,8 C 6,5 km/h (2 Bft)
02.07.2020 04:56 15,6 C 15,8 C 16,1 C 17,1 C 82 % 1015,1 hPa 0,0 l/m 4,3 km/h (1 Bft) W-SW 247 12,7 C 15,8 C 6,8 km/h (2 Bft)
02.07.2020 04:54 15,6 C 16,0 C 16,2 C 17,1 C 81 % 1015,1 hPa 0,0 l/m 4,5 km/h (1 Bft) W 270 12,7 C 16,0 C 6,8 km/h (2 Bft)
02.07.2020 04:52 15,5 C 16,0 C 16,3 C 17,1 C 81 % 1015,1 hPa 0,0 l/m 4,7 km/h (1 Bft) W 270 12,7 C 16,0 C 8,2 km/h (2 Bft)
02.07.2020 04:50 15,6 C 16,0 C 16,4 C 17,1 C 81 % 1015,1 hPa 0,0 l/m 4,7 km/h (1 Bft) O 90 12,7 C 16,0 C 8,2 km/h (2 Bft)
02.07.2020 04:48 15,6 C 16,0 C 16,4 C 17,0 C 81 % 1015,1 hPa 0,0 l/m 4,7 km/h (1 Bft) W-SW 247 12,7 C 16,0 C 8,0 km/h (2 Bft)
02.07.2020 04:46 15,6 C 16,0 C 16,6 C 17,1 C 81 % 1015,1 hPa 0,0 l/m 4,5 km/h (1 Bft) W 270 12,7 C 16,0 C 9,4 km/h (2 Bft)
02.07.2020 04:44 15,7 C 16,0 C 16,8 C 17,0 C 81 % 1015,1 hPa 0,0 l/m 4,3 km/h (1 Bft) W-SW 247 12,7 C 16,0 C 9,4 km/h (2 Bft)
02.07.2020 04:42 15,7 C 16,0 C 16,8 C 17,0 C 81 % 1015,1 hPa 0,0 l/m 4,2 km/h (1 Bft) W-SW 247 12,7 C 16,0 C 8,0 km/h (2 Bft)
02.07.2020 04:40 15,8 C 16,0 C 16,6 C 17,1 C 81 % 1015,1 hPa 0,0 l/m 3,9 km/h (1 Bft) W-SW 247 12,7 C 16,0 C 8,0 km/h (2 Bft)
02.07.2020 04:38 15,8 C 16,0 C 16,3 C 17,1 C 81 % 1015,1 hPa 0,0 l/m 3,7 km/h (1 Bft) W-SW 247 12,7 C 16,0 C 8,0 km/h (2 Bft)
02.07.2020 04:36 15,8 C 16,1 C 16,3 C 17,1 C 81 % 1014,9 hPa 0,0 l/m 3,2 km/h (1 Bft) W-SW 247 12,8 C 16,1 C 7,2 km/h (2 Bft)
02.07.2020 04:34 15,9 C 16,1 C 16,3 C 17,1 C 81 % 1014,9 hPa 0,0 l/m 3,1 km/h (1 Bft) W-SW 247 12,8 C 16,1 C 7,2 km/h (2 Bft)
02.07.2020 04:32 15,9 C 16,1 C 16,2 C 17,1 C 81 % 1014,9 hPa 0,0 l/m 2,4 km/h (1 Bft) SW 225 12,8 C 16,1 C 6,0 km/h (2 Bft)
02.07.2020 04:30 16,0 C 16,1 C 16,3 C 17,1 C 81 % 1014,9 hPa 0,0 l/m 2,1 km/h (1 Bft) W 270 12,8 C 16,1 C 6,0 km/h (2 Bft)
02.07.2020 04:28 16,0 C 16,1 C 16,6 C 17,1 C 80 % 1014,9 hPa 0,0 l/m 2,3 km/h (1 Bft) W 270 12,6 C 16,1 C 4,3 km/h (1 Bft)
02.07.2020 04:26 16,1 C 16,1 C 16,3 C 17,2 C 80 % 1014,9 hPa 0,0 l/m 2,7 km/h (1 Bft) SW 225 12,6 C 16,1 C 4,3 km/h (1 Bft)
02.07.2020 04:24 16,1 C 16,1 C 16,1 C 17,2 C 80 % 1014,9 hPa 0,0 l/m 3,1 km/h (1 Bft) W-SW 247 12,6 C 16,1 C 3,9 km/h (1 Bft)
02.07.2020 04:22 16,1 C 16,1 C 16,2 C 17,2 C 80 % 1014,9 hPa 0,0 l/m 3,5 km/h (1 Bft) SW 225 12,6 C 16,1 C 3,6 km/h (1 Bft)
02.07.2020 04:20 16,1 C 16,1 C 16,2 C 17,2 C 80 % 1014,9 hPa 0,0 l/m 4,2 km/h (1 Bft) W-SW 247 12,6 C 16,1 C 8,4 km/h (2 Bft)
02.07.2020 04:18 16,1 C 16,1 C 16,2 C 17,2 C 80 % 1014,9 hPa 0,0 l/m 4,3 km/h (1 Bft) SW 225 12,6 C 16,1 C 8,4 km/h (2 Bft)
02.07.2020 04:16 16,1 C 16,1 C 16,2 C 17,2 C 80 % 1014,9 hPa 0,0 l/m 3,7 km/h (1 Bft) SW 225 12,6 C 16,1 C 8,2 km/h (2 Bft)
02.07.2020 04:14 16,1 C 16,1 C 16,2 C 17,2 C 80 % 1014,9 hPa 0,0 l/m 3,2 km/h (1 Bft) S 180 12,6 C 16,1 C 8,2 km/h (2 Bft)
02.07.2020 04:12 16,1 C 16,1 C 16,2 C 17,2 C 80 % 1014,9 hPa 0,0 l/m 2,9 km/h (1 Bft) SW 225 12,6 C 16,1 C 8,2 km/h (2 Bft)
02.07.2020 04:10 16,1 C 16,1 C 16,2 C 17,2 C 80 % 1014,9 hPa 0,0 l/m 2,7 km/h (1 Bft) SW 225 12,6 C 16,1 C 9,2 km/h (2 Bft)
02.07.2020 04:08 16,1 C 16,0 C 16,2 C 17,2 C 80 % 1014,9 hPa 0,0 l/m 3,1 km/h (1 Bft) SW 225 12,5 C 16,0 C 9,2 km/h (2 Bft)
02.07.2020 04:06 16,1 C 16,0 C 16,2 C 17,3 C 80 % 1014,9 hPa 0,0 l/m 2,9 km/h (1 Bft) N-NO 22 12,5 C 16,0 C 4,6 km/h (1 Bft)
02.07.2020 04:04 16,1 C 16,0 C 16,1 C 17,3 C 80 % 1014,9 hPa 0,0 l/m 2,9 km/h (1 Bft) S 180 12,5 C 16,0 C 5,3 km/h (1 Bft)
02.07.2020 04:02 16,2 C 16,1 C 16,1 C 17,3 C 80 % 1014,9 hPa 0,0 l/m 3,1 km/h (1 Bft) S 180 12,6 C 16,1 C 6,0 km/h (2 Bft)
02.07.2020 04:00 16,2 C 16,2 C 16,1 C 17,3 C 80 % 1014,9 hPa 0,0 l/m 3,1 km/h (1 Bft) W-SW 247 12,7 C 16,2 C 6,5 km/h (2 Bft)
02.07.2020 03:58 16,2 C 16,3 C 16,5 C 17,3 C 80 % 1014,9 hPa 0,0 l/m 3,1 km/h (1 Bft) W-SW 247 12,8 C 16,3 C 6,5 km/h (2 Bft)
02.07.2020 03:56 16,2 C 16,3 C 16,8 C 17,3 C 80 % 1015,0 hPa 0,0 l/m 3,4 km/h (1 Bft) S 180 12,8 C 16,3 C 5,6 km/h (1 Bft)
02.07.2020 03:54 16,2 C 16,4 C 16,6 C 17,4 C 80 % 1015,0 hPa 0,0 l/m 3,4 km/h (1 Bft) NW 315 12,9 C 16,4 C 5,6 km/h (1 Bft)
02.07.2020 03:52 16,2 C 16,4 C 16,5 C 17,3 C 80 % 1015,0 hPa 0,0 l/m 4,0 km/h (1 Bft) SW 225 12,9 C 16,4 C 6,5 km/h (2 Bft)
02.07.2020 03:50 16,2 C 16,4 C 16,5 C 17,3 C 80 % 1015,0 hPa 0,0 l/m 4,3 km/h (1 Bft) SW 225 12,9 C 16,4 C 6,5 km/h (2 Bft)
02.07.2020 03:48 16,2 C 16,4 C 16,4 C 17,4 C 80 % 1015,0 hPa 0,0 l/m 4,3 km/h (1 Bft) SW 225 12,9 C 16,4 C 7,7 km/h (2 Bft)
02.07.2020 03:46 16,2 C 16,4 C 16,4 C 17,4 C 80 % 1015,0 hPa 0,0 l/m 4,0 km/h (1 Bft) SW 225 12,9 C 16,4 C 7,7 km/h (2 Bft)
02.07.2020 03:44 16,2 C 16,4 C 16,4 C 17,4 C 80 % 1015,0 hPa 0,0 l/m 3,9 km/h (1 Bft) W 270 12,9 C 16,4 C 10,9 km/h (2 Bft)
02.07.2020 03:42 16,1 C 16,4 C 16,4 C 17,4 C 80 % 1015,0 hPa 0,0 l/m 3,5 km/h (1 Bft) SW 225 12,9 C 16,4 C 10,9 km/h (2 Bft)
02.07.2020 03:40 16,1 C 16,4 C 16,3 C 17,4 C 80 % 1015,0 hPa 0,0 l/m 3,2 km/h (1 Bft) W-SW 247 12,9 C 16,4 C 9,7 km/h (2 Bft)
02.07.2020 03:38 16,1 C 16,4 C 16,2 C 17,4 C 80 % 1015,0 hPa 0,0 l/m 2,9 km/h (1 Bft) SW 225 12,9 C 16,4 C 8,0 km/h (2 Bft)
02.07.2020 03:36 16,1 C 16,3 C 16,2 C 17,5 C 80 % 1015,2 hPa 0,0 l/m 2,9 km/h (1 Bft) SW 225 12,8 C 16,3 C 5,6 km/h (1 Bft)
02.07.2020 03:34 16,1 C 16,3 C 16,2 C 17,5 C 80 % 1015,2 hPa 0,0 l/m 3,1 km/h (1 Bft) W-SW 247 12,8 C 16,3 C 4,8 km/h (1 Bft)
02.07.2020 03:32 16,1 C 16,4 C 16,3 C 17,5 C 79 % 1015,2 hPa 0,0 l/m 3,1 km/h (1 Bft) W 270 12,7 C 16,4 C 4,8 km/h (1 Bft)
02.07.2020 03:30 16,0 C 16,4 C 16,3 C 17,5 C 79 % 1015,2 hPa 0,0 l/m 2,9 km/h (1 Bft) W-SW 247 12,7 C 16,4 C 5,6 km/h (1 Bft)
02.07.2020 03:28 16,0 C 16,4 C 16,3 C 17,5 C 79 % 1015,2 hPa 0,0 l/m 2,3 km/h (1 Bft) W 270 12,7 C 16,4 C 7,5 km/h (2 Bft)
02.07.2020 03:26 16,0 C 16,4 C 16,3 C 17,5 C 79 % 1015,2 hPa 0,0 l/m 1,9 km/h (1 Bft) SW 225 12,7 C 16,4 C 7,5 km/h (2 Bft)
02.07.2020 03:24 15,9 C 16,6 C 16,3 C 17,5 C 79 % 1015,2 hPa 0,0 l/m 1,3 km/h (1 Bft) SW 225 12,9 C 16,6 C 6,0 km/h (2 Bft)
02.07.2020 03:22 15,9 C 16,6 C 16,4 C 17,6 C 79 % 1015,2 hPa 0,0 l/m 1,0 km/h (0 Bft) SW 225 12,9 C 16,6 C 6,0 km/h (2 Bft)
02.07.2020 03:20 15,9 C 16,6 C 16,4 C 17,6 C 79 % 1015,2 hPa 0,0 l/m 1,1 km/h (1 Bft) SW 225 12,9 C 16,6 C 2,9 km/h (1 Bft)
02.07.2020 03:18 15,9 C 16,6 C 16,4 C 17,6 C 79 % 1015,2 hPa 0,0 l/m 1,3 km/h (1 Bft) SW 225 12,9 C 16,6 C 2,7 km/h (1 Bft)
02.07.2020 03:16 15,8 C 16,6 C 16,2 C 17,6 C 79 % 1014,9 hPa 0,0 l/m 1,6 km/h (1 Bft) S 180 12,9 C 16,6 C 2,7 km/h (1 Bft)
02.07.2020 03:14 15,8 C 16,6 C 16,4 C 17,6 C 79 % 1014,9 hPa 0,0 l/m 1,9 km/h (1 Bft) NW 315 12,9 C 16,6 C 0,0 km/h (0 Bft)
02.07.2020 03:12 15,8 C 16,6 C 16,4 C 17,6 C 79 % 1014,9 hPa 0,0 l/m 2,1 km/h (1 Bft) SW 225 12,9 C 16,6 C 8,0 km/h (2 Bft)
02.07.2020 03:10 15,7 C 16,6 C 16,3 C 17,6 C 79 % 1014,9 hPa 0,0 l/m 1,6 km/h (1 Bft) W-SW 247 12,9 C 16,6 C 8,0 km/h (2 Bft)
02.07.2020 03:08 15,7 C 16,6 C 16,3 C 17,6 C 79 % 1014,9 hPa 0,0 l/m 1,4 km/h (1 Bft) S 180 12,9 C 16,6 C 3,4 km/h (1 Bft)
02.07.2020 03:06 15,6 C 16,5 C 16,4 C 17,6 C 79 % 1014,9 hPa 0,0 l/m 1,3 km/h (1 Bft) S 180 12,8 C 16,5 C 3,4 km/h (1 Bft)
02.07.2020 03:04 15,6 C 16,5 C 16,4 C 17,6 C 79 % 1014,9 hPa 0,0 l/m 0,8 km/h (0 Bft) S 180 12,8 C 16,5 C 2,9 km/h (1 Bft)
02.07.2020 03:02 15,7 C 16,5 C 16,3 C 17,6 C 79 % 1014,9 hPa 0,0 l/m 0,8 km/h (0 Bft) SW 225 12,8 C 16,5 C 0,0 km/h (0 Bft)
02.07.2020 03:00 15,7 C 16,5 C 16,3 C 17,6 C 79 % 1014,9 hPa 0,0 l/m 1,0 km/h (0 Bft) W 270 12,8 C 16,5 C 6,5 km/h (2 Bft)
02.07.2020 02:58 15,7 C 16,5 C 16,3 C 17,7 C 79 % 1014,9 hPa 0,0 l/m 1,1 km/h (1 Bft) SW 225 12,8 C 16,5 C 6,5 km/h (2 Bft)
02.07.2020 02:56 15,7 C 16,5 C 16,4 C 17,7 C 79 % 1015,0 hPa 0,0 l/m 1,4 km/h (1 Bft) S 180 12,8 C 16,5 C 2,7 km/h (1 Bft)
02.07.2020 02:54 15,7 C 16,5 C 16,3 C 17,7 C 79 % 1015,0 hPa 0,0 l/m 1,9 km/h (1 Bft) W 270 12,8 C 16,5 C 4,6 km/h (1 Bft)
02.07.2020 02:52 15,7 C 16,5 C 16,4 C 17,7 C 79 % 1015,0 hPa 0,0 l/m 2,9 km/h (1 Bft) SW 225 12,8 C 16,5 C 4,6 km/h (1 Bft)
02.07.2020 02:50 15,8 C 16,6 C 16,4 C 17,7 C 79 % 1015,0 hPa 0,0 l/m 3,4 km/h (1 Bft) W-SW 247 12,9 C 16,6 C 2,9 km/h (1 Bft)
02.07.2020 02:48 15,8 C 16,6 C 16,7 C 17,7 C 79 % 1015,0 hPa 0,0 l/m 4,0 km/h (1 Bft) W 270 12,9 C 16,6 C 7,0 km/h (2 Bft)
02.07.2020 02:46 15,8 C 16,6 C 16,6 C 17,7 C 80 % 1015,0 hPa 0,0 l/m 4,3 km/h (1 Bft) NW 315 13,1 C 16,6 C 7,0 km/h (2 Bft)
02.07.2020 02:44 15,8 C 16,7 C 16,7 C 17,7 C 80 % 1015,0 hPa 0,0 l/m 4,5 km/h (1 Bft) NW 315 13,2 C 16,7 C 6,5 km/h (2 Bft)
02.07.2020 02:42 15,9 C 16,7 C 16,7 C 17,7 C 80 % 1015,0 hPa 0,0 l/m 4,7 km/h (1 Bft) NW 315 13,2 C 16,7 C 9,7 km/h (2 Bft)
02.07.2020 02:40 15,9 C 16,6 C 16,7 C 17,7 C 80 % 1015,0 hPa 0,0 l/m 4,5 km/h (1 Bft) W 270 13,1 C 16,6 C 9,7 km/h (2 Bft)
02.07.2020 02:38 15,9 C 16,7 C 16,8 C 17,7 C 80 % 1015,0 hPa 0,0 l/m 4,3 km/h (1 Bft) NW 315 13,2 C 16,7 C 8,9 km/h (2 Bft)
02.07.2020 02:36 15,9 C 16,7 C 17,0 C 17,7 C 80 % 1015,0 hPa 0,0 l/m 4,2 km/h (1 Bft) NW 315 13,2 C 16,7 C 7,5 km/h (2 Bft)
02.07.2020 02:34 15,9 C 16,7 C 17,0 C 17,7 C 80 % 1015,0 hPa 0,0 l/m 3,9 km/h (1 Bft) W 270 13,2 C 16,7 C 6,8 km/h (2 Bft)
02.07.2020 02:32 16,0 C 16,7 C 17,0 C 17,7 C 80 % 1015,0 hPa 0,0 l/m 3,4 km/h (1 Bft) N-NO 22 13,2 C 16,7 C 8,2 km/h (2 Bft)
02.07.2020 02:30 16,0 C 16,7 C 16,9 C 17,7 C 80 % 1015,0 hPa 0,0 l/m 2,4 km/h (1 Bft) W-NW 292 13,2 C 16,7 C 8,2 km/h (2 Bft)
02.07.2020 02:28 16,0 C 16,7 C 16,9 C 17,7 C 80 % 1015,0 hPa 0,0 l/m 1,6 km/h (1 Bft) NW 315 13,2 C 16,7 C 5,6 km/h (1 Bft)
02.07.2020 02:26 16,0 C 16,7 C 16,9 C 17,8 C 80 % 1015,0 hPa 0,0 l/m 1,1 km/h (1 Bft) W-SW 247 13,2 C 16,7 C 5,6 km/h (1 Bft)
02.07.2020 02:24 16,0 C 16,7 C 16,7 C 17,8 C 80 % 1015,0 hPa 0,0 l/m 0,5 km/h (0 Bft) NW 315 13,2 C 16,7 C 4,6 km/h (1 Bft)
02.07.2020 02:22 16,0 C 16,7 C 17,0 C 17,8 C 80 % 1015,0 hPa 0,0 l/m 0,3 km/h (0 Bft) O-NO 67 13,2 C 16,7 C 0,0 km/h (0 Bft)
02.07.2020 02:20 16,0 C 16,7 C 16,5 C 17,8 C 80 % 1015,0 hPa 0,0 l/m 0,3 km/h (0 Bft) N-NW 337 13,2 C 16,7 C 0,0 km/h (0 Bft)
02.07.2020 02:18 16,0 C 16,7 C 16,6 C 17,9 C 80 % 1015,0 hPa 0,0 l/m 0,3 km/h (0 Bft) W 270 13,2 C 16,7 C 0,0 km/h (0 Bft)
02.07.2020 02:16 16,0 C 16,7 C 16,8 C 17,9 C 80 % 1014,8 hPa 0,0 l/m 0,3 km/h (0 Bft) W-SW 247 13,2 C 16,7 C 0,0 km/h (0 Bft)
02.07.2020 02:14 16,1 C 16,6 C 16,7 C 17,9 C 80 % 1014,8 hPa 0,0 l/m 0,3 km/h (0 Bft) N-NW 337 13,1 C 16,6 C 0,0 km/h (0 Bft)
02.07.2020 02:12 16,1 C 16,6 C 16,6 C 18,0 C 80 % 1014,8 hPa 0,0 l/m 0,5 km/h (0 Bft) O-NO 67 13,1 C 16,6 C 3,1 km/h (1 Bft)
02.07.2020 02:10 16,1 C 16,5 C 16,6 C 18,0 C 80 % 1014,8 hPa 0,0 l/m 0,6 km/h (0 Bft) O-NO 67 13,0 C 16,5 C 3,1 km/h (1 Bft)
02.07.2020 02:08 16,1 C 16,5 C 16,8 C 18,0 C 80 % 1014,8 hPa 0,0 l/m 0,6 km/h (0 Bft) W 270 13,0 C 16,5 C 2,9 km/h (1 Bft)
02.07.2020 02:06 16,1 C 16,4 C 17,0 C 18,0 C 80 % 1014,8 hPa 0,0 l/m 0,8 km/h (0 Bft) NW 315 12,9 C 16,4 C 3,6 km/h (1 Bft)
02.07.2020 02:04 16,1 C 16,5 C 16,7 C 18,0 C 80 % 1014,8 hPa 0,0 l/m 1,1 km/h (1 Bft) NO 45 13,0 C 16,5 C 4,6 km/h (1 Bft)
02.07.2020 02:02 16,2 C 16,4 C 16,6 C 18,1 C 80 % 1014,8 hPa 0,0 l/m 1,0 km/h (0 Bft) N-NW 337 12,9 C 16,4 C 4,6 km/h (1 Bft)
02.07.2020 02:00 16,2 C 16,4 C 16,8 C 18,1 C 80 % 1014,8 hPa 0,0 l/m 1,1 km/h (1 Bft) SW 225 12,9 C 16,4 C 3,9 km/h (1 Bft)
02.07.2020 01:58 16,2 C 16,4 C 16,7 C 18,1 C 80 % 1014,8 hPa 0,0 l/m 1,0 km/h (0 Bft) O-NO 67 12,9 C 16,4 C 4,6 km/h (1 Bft)
02.07.2020 01:56 16,2 C 16,4 C 16,7 C 18,2 C 80 % 1014,8 hPa 0,0 l/m 0,8 km/h (0 Bft) S-SO 157 12,9 C 16,4 C 4,6 km/h (1 Bft)
02.07.2020 01:54 16,3 C 16,4 C 16,9 C 18,2 C 80 % 1014,8 hPa 0,0 l/m 0,8 km/h (0 Bft) SO 135 12,9 C 16,4 C 4,3 km/h (1 Bft)
02.07.2020 01:52 16,3 C 16,4 C 16,9 C 18,2 C 80 % 1014,8 hPa 0,0 l/m 0,6 km/h (0 Bft) SW 225 12,9 C 16,4 C 4,6 km/h (1 Bft)
02.07.2020 01:50 16,4 C 16,4 C 16,7 C 18,3 C 80 % 1014,8 hPa 0,0 l/m 0,5 km/h (0 Bft) SO 135 12,9 C 16,4 C 4,6 km/h (1 Bft)
02.07.2020 01:48 16,4 C 16,4 C 16,9 C 18,3 C 80 % 1014,8 hPa 0,0 l/m 0,5 km/h (0 Bft) S 180 12,9 C 16,4 C 0,0 km/h (0 Bft)
02.07.2020 01:46 16,4 C 16,4 C 17,0 C 18,3 C 80 % 1014,8 hPa 0,0 l/m 0,6 km/h (0 Bft) NO 45 12,9 C 16,4 C 6,5 km/h (2 Bft)
02.07.2020 01:44 16,4 C 16,4 C 17,0 C 18,3 C 80 % 1014,8 hPa 0,0 l/m 1,0 km/h (0 Bft) NO 45 12,9 C 16,4 C 6,5 km/h (2 Bft)
02.07.2020 01:42 16,4 C 16,5 C 17,4 C 18,4 C 80 % 1014,8 hPa 0,0 l/m 1,1 km/h (1 Bft) W-SW 247 13,0 C 16,5 C 0,0 km/h (0 Bft)
02.07.2020 01:40 16,4 C 16,5 C 17,3 C 18,4 C 80 % 1014,8 hPa 0,0 l/m 1,9 km/h (1 Bft) W-NW 292 13,0 C 16,5 C 4,3 km/h (1 Bft)
02.07.2020 01:38 16,5 C 16,6 C 17,2 C 18,4 C 80 % 1014,8 hPa 0,0 l/m 2,7 km/h (1 Bft) O-NO 67 13,1 C 16,6 C 4,3 km/h (1 Bft)
02.07.2020 01:36 16,5 C 16,6 C 17,3 C 18,4 C 80 % 1014,7 hPa 0,0 l/m 3,7 km/h (1 Bft) N-NW 337 13,1 C 16,6 C 0,0 km/h (0 Bft)
02.07.2020 01:34 16,6 C 16,6 C 17,1 C 18,4 C 80 % 1014,7 hPa 0,0 l/m 4,7 km/h (1 Bft) NO 45 13,1 C 16,6 C 2,7 km/h (1 Bft)
02.07.2020 01:32 16,7 C 16,7 C 17,1 C 18,4 C 80 % 1014,7 hPa 0,0 l/m 5,1 km/h (1 Bft) SO 135 13,2 C 16,7 C 5,1 km/h (1 Bft)
02.07.2020 01:30 16,7 C 16,8 C 17,2 C 18,4 C 80 % 1014,7 hPa 0,0 l/m 5,5 km/h (1 Bft) NO 45 13,3 C 16,8 C 10,1 km/h (2 Bft)
02.07.2020 01:28 16,7 C 16,8 C 17,2 C 18,4 C 80 % 1014,7 hPa 0,0 l/m 5,8 km/h (2 Bft) NW 315 13,3 C 16,8 C 16,7 km/h (3 Bft)
02.07.2020 01:26 16,7 C 16,7 C 17,4 C 18,5 C 80 % 1014,7 hPa 0,0 l/m 5,3 km/h (1 Bft) W-NW 292 13,2 C 16,7 C 12,1 km/h (2 Bft)
02.07.2020 01:24 16,7 C 16,6 C 17,5 C 18,4 C 80 % 1014,7 hPa 0,0 l/m 4,5 km/h (1 Bft) W-NW 292 13,1 C 16,6 C 9,2 km/h (2 Bft)
02.07.2020 01:22 16,6 C 16,6 C 17,5 C 18,4 C 80 % 1014,7 hPa 0,0 l/m 4,7 km/h (1 Bft) W 270 13,1 C 16,6 C 10,1 km/h (2 Bft)
02.07.2020 01:20 16,6 C 16,7 C 17,8 C 18,4 C 80 % 1014,7 hPa 0,0 l/m 4,8 km/h (1 Bft) NW 315 13,2 C 16,7 C 10,1 km/h (2 Bft)
02.07.2020 01:18 16,6 C 16,7 C 17,9 C 18,4 C 80 % 1014,7 hPa 0,0 l/m 4,2 km/h (1 Bft) N-NO 22 13,2 C 16,7 C 13,8 km/h (3 Bft)
02.07.2020 01:16 16,5 C 16,7 C 17,9 C 18,4 C 80 % 1014,4 hPa 0,0 l/m 3,4 km/h (1 Bft) W-NW 292 13,2 C 16,7 C 7,5 km/h (2 Bft)
02.07.2020 01:14 16,5 C 16,7 C 17,5 C 18,4 C 80 % 1014,4 hPa 0,0 l/m 3,2 km/h (1 Bft) W 270 13,2 C 16,7 C 12,1 km/h (2 Bft)
02.07.2020 01:12 16,5 C 16,8 C 17,2 C 18,4 C 80 % 1014,4 hPa 0,0 l/m 2,4 km/h (1 Bft) SW 225 13,3 C 16,8 C 12,1 km/h (2 Bft)
02.07.2020 01:10 16,5 C 16,8 C 17,2 C 18,5 C 79 % 1014,4 hPa 0,0 l/m 1,4 km/h (1 Bft) W 270 13,1 C 16,8 C 10,4 km/h (2 Bft)
02.07.2020 01:08 16,5 C 16,8 C 17,2 C 18,5 C 79 % 1014,4 hPa 0,0 l/m 0,8 km/h (0 Bft) W-NW 292 13,1 C 16,8 C 2,7 km/h (1 Bft)
02.07.2020 01:06 16,6 C 16,8 C 17,1 C 18,5 C 79 % 1014,4 hPa 0,0 l/m 0,8 km/h (0 Bft) W-SW 247 13,1 C 16,8 C 3,6 km/h (1 Bft)
02.07.2020 01:04 16,6 C 16,7 C 17,0 C 18,5 C 79 % 1014,4 hPa 0,0 l/m 0,6 km/h (0 Bft) S 180 13,0 C 16,7 C 3,6 km/h (1 Bft)
02.07.2020 01:02 16,6 C 16,7 C 17,0 C 18,5 C 79 % 1014,4 hPa 0,0 l/m 1,0 km/h (0 Bft) W-SW 247 13,0 C 16,7 C 3,6 km/h (1 Bft)
02.07.2020 01:00 16,6 C 16,7 C 17,0 C 18,5 C 79 % 1014,4 hPa 0,0 l/m 0,8 km/h (0 Bft) O-NO 67 13,0 C 16,7 C 4,6 km/h (1 Bft)
02.07.2020 00:58 16,6 C 16,8 C 17,3 C 18,5 C 79 % 1014,4 hPa 0,0 l/m 0,8 km/h (0 Bft) SO 135 13,1 C 16,8 C 4,6 km/h (1 Bft)
02.07.2020 00:56 16,6 C 16,8 C 17,6 C 18,5 C 79 % 1014,4 hPa 0,0 l/m 0,6 km/h (0 Bft) W-NW 292 13,1 C 16,8 C 0,0 km/h (0 Bft)
02.07.2020 00:54 16,6 C 16,8 C 17,8 C 18,5 C 79 % 1014,4 hPa 0,0 l/m 0,6 km/h (0 Bft) N-NO 22 13,1 C 16,8 C 4,3 km/h (1 Bft)
02.07.2020 00:52 16,6 C 16,8 C 17,9 C 18,5 C 79 % 1014,4 hPa 0,0 l/m 0,3 km/h (0 Bft) O-SO 112 13,1 C 16,8 C 4,3 km/h (1 Bft)
02.07.2020 00:50 16,6 C 16,8 C 17,9 C 18,6 C 79 % 1014,4 hPa 0,0 l/m 0,0 km/h (0 Bft) O-NO 67 13,1 C 16,8 C 0,0 km/h (0 Bft)
02.07.2020 00:48 16,6 C 16,8 C 17,7 C 18,6 C 79 % 1014,4 hPa 0,0 l/m 0,0 km/h (0 Bft) N-NW 337 13,1 C 16,8 C 0,0 km/h (0 Bft)
02.07.2020 00:46 16,7 C 16,8 C 17,7 C 18,6 C 79 % 1014,4 hPa 0,0 l/m 0,0 km/h (0 Bft) O-NO 67 13,1 C 16,8 C 0,0 km/h (0 Bft)
02.07.2020 00:44 16,7 C 16,9 C 17,7 C 18,6 C 79 % 1014,4 hPa 0,0 l/m 0,0 km/h (0 Bft) NO 45 13,2 C 16,9 C 0,0 km/h (0 Bft)
02.07.2020 00:42 16,8 C 16,9 C 17,3 C 18,6 C 79 % 1014,4 hPa 0,0 l/m 0,3 km/h (0 Bft) O-NO 67 13,2 C 16,9 C 0,0 km/h (0 Bft)
02.07.2020 00:40 16,9 C 16,9 C 17,3 C 18,7 C 79 % 1014,4 hPa 0,0 l/m 0,6 km/h (0 Bft) S-SO 157 13,2 C 16,9 C 0,0 km/h (0 Bft)
02.07.2020 00:38 16,9 C 16,9 C 17,1 C 18,7 C 79 % 1014,4 hPa 0,0 l/m 1,1 km/h (1 Bft) S 180 13,2 C 16,9 C 2,7 km/h (1 Bft)
02.07.2020 00:36 16,9 C 17,0 C 17,4 C 18,8 C 79 % 1014,6 hPa 0,0 l/m 1,4 km/h (1 Bft) S 180 13,3 C 17,0 C 2,7 km/h (1 Bft)
02.07.2020 00:34 17,0 C 17,0 C 17,9 C 18,8 C 79 % 1014,6 hPa 0,0 l/m 1,9 km/h (1 Bft) SW 225 13,3 C 17,0 C 3,1 km/h (1 Bft)
02.07.2020 00:32 17,0 C 17,1 C 17,7 C 18,8 C 79 % 1014,6 hPa 0,0 l/m 2,3 km/h (1 Bft) NW 315 13,4 C 17,1 C 3,1 km/h (1 Bft)
02.07.2020 00:30 17,0 C 17,0 C 17,3 C 18,8 C 79 % 1014,6 hPa 0,0 l/m 2,4 km/h (1 Bft) NW 315 13,3 C 17,0 C 5,1 km/h (1 Bft)
02.07.2020 00:28 17,0 C 17,1 C 17,2 C 18,9 C 79 % 1014,6 hPa 0,0 l/m 2,3 km/h (1 Bft) W 270 13,4 C 17,1 C 5,1 km/h (1 Bft)
02.07.2020 00:26 17,1 C 17,0 C 17,1 C 18,9 C 79 % 1014,6 hPa 0,0 l/m 1,8 km/h (1 Bft) W-SW 247 13,3 C 17,0 C 5,3 km/h (1 Bft)
02.07.2020 00:24 17,1 C 17,1 C 17,3 C 18,9 C 79 % 1014,6 hPa 0,0 l/m 1,8 km/h (1 Bft) SW 225 13,4 C 17,1 C 6,0 km/h (2 Bft)
02.07.2020 00:22 17,1 C 17,1 C 17,3 C 19,0 C 79 % 1014,6 hPa 0,0 l/m 1,4 km/h (1 Bft) W 270 13,4 C 17,1 C 6,0 km/h (2 Bft)
02.07.2020 00:20 17,1 C 17,1 C 17,0 C 19,0 C 79 % 1014,6 hPa 0,0 l/m 1,4 km/h (1 Bft) NW 315 13,4 C 17,1 C 4,8 km/h (1 Bft)
02.07.2020 00:18 17,1 C 17,1 C 17,1 C 19,0 C 79 % 1014,6 hPa 0,0 l/m 1,8 km/h (1 Bft) NW 315 13,4 C 17,1 C 4,1 km/h (1 Bft)
02.07.2020 00:16 17,1 C 17,1 C 17,3 C 19,0 C 79 % 1014,7 hPa 0,0 l/m 2,6 km/h (1 Bft) W-SW 247 13,4 C 17,1 C 4,8 km/h (1 Bft)
02.07.2020 00:14 17,1 C 17,2 C 17,8 C 19,1 C 79 % 1014,7 hPa 0,0 l/m 2,6 km/h (1 Bft) SW 225 13,5 C 17,2 C 4,8 km/h (1 Bft)
02.07.2020 00:12 17,1 C 17,2 C 18,0 C 19,1 C 79 % 1014,7 hPa 0,0 l/m 3,1 km/h (1 Bft) N-NW 337 13,5 C 17,2 C 4,3 km/h (1 Bft)
02.07.2020 00:10 17,1 C 17,2 C 18,4 C 19,1 C 79 % 1014,7 hPa 0,0 l/m 3,7 km/h (1 Bft) W-NW 292 13,5 C 17,2 C 4,8 km/h (1 Bft)
02.07.2020 00:08 17,2 C 17,3 C 17,6 C 19,2 C 79 % 1014,7 hPa 0,0 l/m 4,2 km/h (1 Bft) W 270 13,6 C 17,3 C 5,6 km/h (1 Bft)
02.07.2020 00:06 17,2 C 17,4 C 17,7 C 19,2 C 79 % 1014,7 hPa 0,0 l/m 4,7 km/h (1 Bft) W-SW 247 13,7 C 17,4 C 5,6 km/h (1 Bft)
02.07.2020 00:04 17,2 C 17,4 C 17,6 C 19,2 C 79 % 1014,7 hPa 0,0 l/m 5,1 km/h (1 Bft) W-SW 247 13,7 C 17,4 C 8,0 km/h (2 Bft)
02.07.2020 00:02 17,2 C 17,4 C 17,4 C 19,2 C 79 % 1014,7 hPa 0,0 l/m 5,5 km/h (1 Bft) NW 315 13,7 C 17,4 C 9,2 km/h (2 Bft)
02.07.2020 00:00 17,2 C 17,3 C 17,6 C 19,2 C 79 % 1014,7 hPa 0,0 l/m 5,5 km/h (1 Bft) W-NW 292 13,6 C 17,3 C 9,7 km/h (2 Bft)
_ Min-Zeit 05:22 04:56 04:58 04:42 00:00 00:38 - 00:44 - - 04:04 04:56 00:40
Minimum _ 15,2 C 15,8 C 16,0 C 17,0 C 79 % 1014,4 hPa - 0,0 km/h (0 Bft) - - 12,5 C 15,8 C 0,0 km/h (0 Bft)
_ Max-Zeit 08:04 07:58 07:46 07:22 04:56 07:58 00:00 01:28 - - 07:58 07:58 01:28
Maximum _ 19,7 C 19,1 C 21,8 C 26,6 C 82 % 1017,7 hPa 0,0 l/m 5,8 km/h
NW (2 Bft)
- - 15,6 C 19,1 C 16,7 km/h
NW (3 Bft)
Durchschnitt _ 16,7 C 16,8 C 17,5 C 19,4 C 80 % 1015,4 hPa #0,0 l/m 2,6 km/h (1 Bft) W - 13,4 C 16,8 C 5,5 km/h (1 Bft)